Weather History for State College, PA

Change the Weather History Date:

Thursday, May 23, 2013

  Actual Average Record
Temperature  
Mean Temperature 70 °F -  
Max Temperature 78 °F 74 °F 89 °F (1975)
Min Temperature 62 °F 49 °F 34 °F (1932)
Cooling Degree Days 5    
Growing Degree Days 20 (Base 50)    
Moisture  
Dew Point 60 °F    
Average Humidity 82    
Maximum Humidity 94    
Minimum Humidity 47    
Precipitation  
Precipitation 0.00 in - - ()
Sea Level Pressure  
Sea Level Pressure 29.82 in    
Wind  
Wind Speed 5 mph (SW)    
Max Wind Speed 25 mph    
Max Gust Speed 33 mph    
Visibility 10 miles    
Events Rain , Thunderstorm    
Averages and records for this station are not official NWS values.
T = Trace of Precipitation, MM = Missing Value Source: NWS Daily Summary

Daily Weather History Graph

Daily Weather History Graph

Search for Another Location

Airport:

Trip Planner

Search our weather history database for the weather conditions in past years. The results will help you decide how hot, cold, wet, or windy it might be!

Date:

Astronomy

May. 23, 2013 Rise Set
Actual Time 5:47 AM EDT 8:29 PM EDT
Civil Twilight 5:15 AM EDT 9:01 PM EDT
Nautical Twilight 4:35 AM EDT 9:42 PM EDT
Astronomical Twilight 3:49 AM EDT 10:27 PM EDT
Moon 6:59 PM EDT (5/23) 4:31 AM EDT (5/23)
Length of Visible Light 15h 46m
Length of Day
14h 42m
Waxing Gibbous, 97% of the Moon is Illuminated
May 23
Waxing Gibbous
May 25
Full
May 31
Last Quarter
Jun 8
New
Jun 16
First Quarter

Hourly Weather History & Observations

Time (EDT) Temp. Dew Point Humidity Pressure Visibility Wind Dir Wind Speed Gust Speed Precip Events Conditions
12:15 AM 66.2 °F 62.6 °F 88% 29.86 in 10.0 mi WSW 3.5 mph - N/A   Mostly Cloudy
12:35 AM 66.7 °F 62.4 °F 86% 29.86 in 10.0 mi West 4.6 mph - N/A   Overcast
12:55 AM 66.4 °F 61.9 °F 85% 29.85 in 10.0 mi West 4.6 mph - N/A   Overcast
1:15 AM 65.8 °F 61.5 °F 86% 29.85 in 10.0 mi SW 3.5 mph - N/A   Scattered Clouds
1:35 AM 65.1 °F 61.7 °F 89% 29.84 in 10.0 mi SW 3.5 mph - N/A   Scattered Clouds
1:55 AM 65.5 °F 61.7 °F 88% 29.84 in 10.0 mi West 5.8 mph - N/A   Scattered Clouds
2:15 AM 64.9 °F 62.1 °F 90% 29.83 in 10.0 mi WSW 3.5 mph - N/A   Mostly Cloudy
2:35 AM 65.1 °F 61.7 °F 89% 29.82 in 10.0 mi WSW 3.5 mph - N/A   Scattered Clouds
2:55 AM 65.1 °F 61.7 °F 89% 29.83 in 10.0 mi SW 5.8 mph - N/A   Scattered Clouds
3:15 AM 64.4 °F 61.7 °F 91% 29.83 in 10.0 mi SW 5.8 mph - N/A   Mostly Cloudy
3:35 AM 65.5 °F 61.2 °F 86% 29.84 in 10.0 mi WSW 9.2 mph - N/A   Mostly Cloudy
3:55 AM 64.9 °F 60.8 °F 86% 29.85 in 10.0 mi WSW 8.1 mph - N/A   Mostly Cloudy
4:15 AM 65.7 °F 60.4 °F 83% 29.85 in 10.0 mi SSW 8.1 mph - N/A   Overcast
4:35 AM 65.1 °F 60.4 °F 85% 29.84 in 10.0 mi South 4.6 mph - N/A   Drizzle
4:55 AM 64.6 °F 60.8 °F 88% 29.83 in 10.0 mi South 4.6 mph - N/A   Light Drizzle
5:15 AM 64.4 °F 61.0 °F 89% 29.83 in 10.0 mi South 3.5 mph - N/A   Mostly Cloudy
5:35 AM 64.6 °F 60.8 °F 88% 29.83 in 10.0 mi SW 4.6 mph - N/A   Mostly Cloudy
5:53 AM 64.4 °F 60.8 °F 88% 29.84 in 10.0 mi Calm Calm - N/A   Overcast
6:53 AM 64.4 °F 60.8 °F 88% 29.85 in 10.0 mi Calm Calm - N/A   Overcast
7:53 AM 64.4 °F 62.6 °F 94% 29.86 in 10.0 mi SW 5.8 mph - N/A   Overcast
8:20 AM 66.2 °F 62.6 °F 88% 29.87 in 10.0 mi SSW 6.9 mph - N/A Rain Light Rain
8:53 AM 66.2 °F 62.6 °F 88% 29.87 in 10.0 mi SW 5.8 mph - N/A Rain Light Rain
9:53 AM 66.2 °F 62.6 °F 88% 29.87 in 7.0 mi SW 6.9 mph - N/A Rain Light Rain
10:53 AM 66.2 °F 64.4 °F 94% 29.87 in 10.0 mi SW 5.8 mph - N/A   Overcast
11:53 AM 68.0 °F 64.4 °F 88% 29.86 in 7.0 mi SSW 9.2 mph - N/A   Mostly Cloudy
12:53 PM 71.6 °F 62.6 °F 73% 29.85 in 7.0 mi SSW 9.2 mph - N/A   Mostly Cloudy
1:53 PM 73.4 °F 62.6 °F 69% 29.81 in 7.0 mi West 8.1 mph - N/A   Mostly Cloudy
2:53 PM 77.0 °F 60.8 °F 57% 29.78 in 10.0 mi SW 11.5 mph - N/A   Scattered Clouds
3:53 PM 78.8 °F 57.2 °F 47% 29.76 in 10.0 mi SSW 13.8 mph - N/A   Scattered Clouds
4:53 PM 77.0 °F 55.4 °F 47% 29.76 in 10.0 mi SSW 10.4 mph - N/A   Mostly Cloudy
5:20 PM 68.0 °F 59.0 °F 73% 29.78 in 3.0 mi West 25.3 mph 33.4 mph N/A Rain , Thunderstorm Heavy Thunderstorms and Rain
5:35 PM 64.4 °F 60.8 °F 88% 29.77 in 10.0 mi West 6.9 mph - N/A Rain Light Rain
5:53 PM 66.2 °F 60.8 °F 83% 29.78 in 10.0 mi SSW 4.6 mph - N/A   Mostly Cloudy
6:53 PM 66.2 °F 60.8 °F 83% 29.78 in 10.0 mi SSW 5.8 mph - N/A   Mostly Cloudy
7:53 PM 64.4 °F 59.0 °F 83% 29.79 in 10.0 mi SSW 4.6 mph - N/A   Mostly Cloudy
8:53 PM 64.4 °F 59.0 °F 83% 29.80 in 10.0 mi WSW 5.8 mph - N/A   Mostly Cloudy
9:15 PM 64.2 °F 58.3 °F 81% 29.80 in 10.0 mi Calm Calm - N/A   Overcast
9:35 PM 64.8 °F 57.2 °F 76% 29.80 in 10.0 mi West 6.9 mph - N/A   Mostly Cloudy
9:55 PM 64.6 °F 57.2 °F 77% 29.79 in 10.0 mi West 4.6 mph - N/A   Scattered Clouds
10:15 PM 63.5 °F 57.2 °F 80% 29.79 in 10.0 mi WSW 3.5 mph - N/A   Scattered Clouds
10:35 PM 64.0 °F 56.8 °F 77% 29.80 in 10.0 mi WNW 6.9 mph - N/A   Scattered Clouds
10:55 PM 63.5 °F 56.8 °F 79% 29.80 in 10.0 mi Calm Calm - N/A   Scattered Clouds
11:15 PM 62.2 °F 57.6 °F 85% 29.80 in 10.0 mi Calm Calm - N/A   Mostly Cloudy
11:35 PM 62.6 °F 57.2 °F 82% 29.80 in 10.0 mi WSW 5.8 mph - N/A   Mostly Cloudy
11:55 PM 62.6 °F 57.0 °F 82% 29.79 in 10.0 mi WSW 3.5 mph - N/A   Overcast